Preview of NWS' New Version of Forecast
This preview is not operational and should not be used for support decisions.

Regional Weather Roundup (RWR)

Issued by National Weather Service (NWS)

                            
000
ASUS42 KTBW 220418
RWRFL 
FLORIDA REGIONAL WEATHER ROUNDUP
NATIONAL WEATHER SERVICE TAMPA BAY RUSKIN FL
1200 AM EDT MON JUL 22 2019

NOTE: "FAIR" INDICATES FEW OR NO CLOUDS BELOW 12,000 FEET WITH NO
SIGNIFICANT WEATHER AND/OR OBSTRUCTIONS TO VISIBILITY.

FLZ001>010-012>015-112-114-115-220500-
PANHANDLE FLORIDA
  
CITY           SKY/WX    TMP DP  RH WIND       PRES   REMARKS
PENSACOLA      FAIR      78  76  93 S3        30.02F                  
PENSACOLA NAS  FAIR      78  74  87 S7        30.01F                  
MILTON NAS     FAIR      75  73  93 SE3         N/A                   
CRESTVIEW      FAIR      75  72  90 CALM      30.04F                  
DUKE FIELD     FAIR      76  73  91 CALM      30.03S                  
VALPARAISO     FAIR      81  71  71 S6        30.02S                  
MARY ESTHER    PTCLDY    81  72  76 CALM      30.01F                  
TRI COUNTY     FAIR      75  75 100 CALM      30.05F                  
PANAMA CITY    FAIR      77  73  87 CALM      30.03F                  
TYNDALL AFB    FAIR      79  74  85 S3        30.03F                  
APALACHICOLA   FAIR      78  73  84 NW5       30.03F                  

STATION/POSITION SKY/WX   TEMP    WIND        PRES    WAVE   SWELL
                          AIR SEA DIR/SP/G            HT/PER HT/PER
                          (F)     (DEG/KT/KT) (MB)    (FT/S) (FT/S)
30.1N   87.6W              81 86  190/  8/ 10 1016.3F   1/ 4   2/ 4
29.2N   88.2W              81 84  190/  4/  6 1016.6
28.8N   86.0W                 86   90/  2/  2 1017.5S   1/ 5   2/ 5
PANAMA CITY BEAC           83 87  180/  6/  8 1017.8F
TOWER C                    82     230/  8/ 10 1017.2F
28.5N   84.5W              83     170/  8/ 12 1017.6F   1/ 5

$$
FLZ011-016>038-118-127-128-134-139-239-220500-
NORTH FLORIDA
  
CITY           SKY/WX    TMP DP  RH WIND       PRES   REMARKS
MARIANNA       MOCLDY    76  75  97 CALM      30.05R                  
TALLAHASSEE    FAIR      77  75  93 NW3       30.03F                  
PERRY          FAIR      72  71  96 CALM      30.07R                  
LIVE OAK       CLEAR     72  72 100 CALM      30.06R                  
CROSS CITY     FAIR      69  67  94 CALM      30.07F                  
LAKE CITY      FAIR      70  70 100 CALM      30.07R                  
GAINESVILLE    FAIR      69  68  96 W5        30.10R                  
WILLISTON      FAIR      69  69  98 S3        30.09R                  
PALATKA        MOCLDY    72  72 100 CALM      30.08R                  
MAYPORT NAS    FAIR      77  71  82 CALM      30.06F                  
JACKSONVILLE   MOCLDY    76  72  87 CALM      30.06S                  
JAX NAS        FAIR      79  68  69 CALM      30.07S                  
JAX CECIL      CLOUDY    72  70  94 CALM      30.06S                  
FERNANDINA BEA FAIR      76  73  88 CALM      30.07S                  
ST AUGUSTINE   FAIR      77  71  82 CALM      30.08S                  
PALM COAST     FAIR      73  70  89 CALM      30.07S                  

STATION/POSITION SKY/WX   TEMP    WIND        PRES    WAVE   SWELL
                          AIR SEA DIR/SP/G            HT/PER HT/PER
                          (F)     (DEG/KT/KT) (MB)    (FT/S) (FT/S)
SHELL POINT      NOT AVBL
KEATON BEACH               74     100/  7/  9 1018.0R
CEDAR KEY                  81     130/ 18/ 19 1018.3R
FERNANDINA                 82 86  110/  1/  1 1018.8F
30.7N   81.3W                 83                N/A     2/ 8
MAYPORT                    79 82  250/  5/  6 1018.6S
31.4N   80.9W              83 83  230/ 12/ 14 1018.0R   2/ 4   2/ 8
ST AUGUSTINE               78 76     CALM     1018.4F

$$
FLZ040-043>046-052-053-057-058-063-144-220500-
INTERIOR CENTRAL FLORIDA
  
CITY           SKY/WX    TMP DP  RH WIND       PRES   REMARKS
OCALA          FAIR      71  70  96 CALM      30.09R                  
LEESBURG       FAIR      74  72  93 CALM      30.08S                  
SANFORD        FAIR      74  71  91 NE5       30.07S                  
ORLANDO EXEC   FAIR      75  70  84 E5        30.07S                  
ORLANDO INTL   MOCLDY    76  69  79 NE6       30.07R                  
KISSIMMEE      FAIR      77  71  82 CALM      30.08                   
WINTER HAVEN   FAIR      75  72  90 E8        30.08S                  
LAKELAND       FAIR      73  72  94 CALM      30.07S                  
BARTOW           N/A     73  73 100 E3        30.06S                  
SEBRING        FAIR      73  72  96 NE3       30.06S                  
OKEECHOBEE     FAIR      73  72  94 CALM      30.06S                  

$$
FLZ041-047-054-059-064-141-147-220500-
EAST CENTRAL FLORIDA
  
CITY           SKY/WX    TMP DP  RH WIND       PRES   REMARKS
DAYTONA BEACH  FAIR      76  71  85 NE5       30.07F                  
DELAND         FAIR      72  70  94 CALM      30.08R                  
JFK SPACE CTR  MOCLDY    76  65  70 CALM      30.06S                  
CAPE CANAVERAL CLEAR     79  58  48 CALM      30.05S                  
PATRICK AFB    FAIR      82  81  96 SE5       30.05F                  
MELBOURNE      FAIR      80  74  81 CALM      30.05F                  
VERO BEACH     FAIR      77  71  82 CALM      30.06S                  
FT PIERCE      FAIR      74  70  87 CALM      30.06S                  
STUART         FAIR      77  72  83 W3        30.07F                  

STATION/POSITION SKY/WX   TEMP    WIND        PRES    WAVE   SWELL
                          AIR SEA DIR/SP/G            HT/PER HT/PER
                          (F)     (DEG/KT/KT) (MB)    (FT/S) (FT/S)
28.5N   80.2W              83 84  140/  6/  8 1017.9F   1/ 8   2/ 8
28.9N   78.5W              85 86  110/  8/ 10   N/A     2/ 8   2/ 8
TRIDENT PIER               81 84  120/  2/  4 1019.4F
28.4N   80.5W                 83                N/A     1/ 8
27.5N   80.2W                 83                N/A     1/ 8

$$
FLZ050-056-061-142-242-148-248-149-249-151-251-155-255-
160-260-220500-
WEST CENTRAL FLORIDA
  
CITY           SKY/WX    TMP DP  RH WIND       PRES   REMARKS
CRYSTAL RIVER  FAIR      72  70  94 CALM      30.08S                  
INVERNESS      FAIR      70  70 100 CALM      30.09R                  
BROOKSVILLE    FAIR      71  70  96 NE6       30.09R                  
CLEARWATER AIR FAIR      77  70  78 SE7       30.05R                  
ST PETE CLEARW FAIR      75  71  87 SE5       30.05R                  
TAMPA INTL     MOCLDY    77  71  82 S6        30.06R                  
TAMPA EXEC     FAIR      72  72 100 CALM      30.07R                  
PLANT CITY     FAIR     N/A N/A N/A MISG      30.08R                  
MACDILL AFB    FAIR      76  71  85 CALM      30.05R                  
PETER O KNIGHT CLOUDY   N/A N/A N/A S8        30.06S                  
ST PETERSBURG  FAIR      77  72  84 S8        30.03S                  
SARASOTA       FAIR      74  72  93 E3        30.03S                  
VENICE         FAIR      75  73  94 E5        30.06R                  

STATION/POSITION SKY/WX   TEMP    WIND        PRES    WAVE   SWELL
                          AIR SEA DIR/SP/G            HT/PER HT/PER
                          (F)     (DEG/KT/KT) (MB)    (FT/S) (FT/S)
27.3N   84.2W                 87                N/A     2/ 5
CLEARWATER BEACH           80 87  150/  6/  9 1017.7R
MIDDLE TAMPA BAY           76     170/  8/ 10 1017.9R
VENICE                     76 87  120/  5/  6 1017.6R

$$
FLZ066-069-070-075>078-162-262-165-265-220500-
SOUTHWEST FLORIDA AND KEYS
  
CITY           SKY/WX    TMP DP  RH WIND       PRES   REMARKS
PUNTA GORDA    FAIR      74  74 100 E5        30.06R                  
FT MYERS       FAIR      74  72  93 E3        30.04S                  
SOUTHWEST INTL FAIR      74  72  93 CALM      30.05R                  
MARCO ISLAND   FAIR      74  72  93 MISG      30.06F                  
IMMOKALEE      MOCLDY    73  72  94 SE3       30.04R                  
MARATHON       FAIR      85  75  72 E7        30.04S                  
KEY WEST NAS   FAIR      84  72  67 N5        30.05R                  
KEY WEST INTL  FAIR      81  73  76 NE5       30.05R                  

STATION/POSITION SKY/WX   TEMP    WIND        PRES    WAVE   SWELL
                          AIR SEA DIR/SP/G            HT/PER HT/PER
                          (F)     (DEG/KT/KT) (MB)    (FT/S) (FT/S)
NAPLES                     75 87              1017.4F
26.0N   85.6W              84 86   70/  6/  8 1017.4F   2/ 5   2/ 5
DRY TORTUGAS               84      90/ 10/ 12 1017.8R
SAND KEY                   84      90/ 10/ 12 1016.3
SOMBRERO KEY               85      80/  9/ 12 1017.4
LONG KEY                   85                 1016.6

$$
FLZ067-068-071>074-168-172>174-220500-
SOUTHEAST FLORIDA 
  
CITY           SKY/WX    TMP DP  RH WIND       PRES   REMARKS
W PALM BEACH   FAIR      78  72  81 NW7       30.06F                  
FT LAUDER-EXEC FAIR      78  71  79 N3        30.05F                  
FT LAUDERDALE  FAIR      79  71  76 N5        30.04F                  
POMPANO BEACH  FAIR      80  71  74 N3        30.05F                  
PEMBROKE PINES FAIR      80  71  74 N5        30.07F                  
OPA LOCKA      FAIR      80  73  79 N7        30.06S                  
MIAMI          FAIR      81  68  64 VRB5      30.05F                  
WEST KENDALL   FAIR      79  72  79 N3        30.05F                  
HOMESTEAD      FAIR      80  73  77 CALM      30.04S                  

STATION/POSITION SKY/WX   TEMP    WIND        PRES    WAVE   SWELL
                          AIR SEA DIR/SP/G            HT/PER HT/PER
                          (F)     (DEG/KT/KT) (MB)    (FT/S) (FT/S)
PORT EVERGLADES            81     320/  5/  7 1018.0
VIRGINIA KEY               83 89   30/  6/ 10 1017.3R
LAKE WORTH                 79 84  290/  5/  6 1019.0F
FOWEY ROCKS                84 85   50/  5/  6 1017.7F
SETTLEMENT POINT           83     140/  4/  5 1018.1F

$$